Location: Buckenweiler
(49.0667°N, 10.2500°E)
Time: 23:38:41
(UTC+00:00)

Meteor 1-24 Rocket - Pass Details

Date: 18 January 2026
Orbit: 790 x 925 km, 81.3° (Epoch: 16 February)

Event Time Altitude Azimuth Distance (km) Brightness Sun altitude
Rises 05:47:36 0° 346° (NNW) 3,576 6.7 -12.5°
Reaches altitude 10° 05:50:06 10° 346° (NNW) 2,634 6.0 -12.1°
Maximum altitude 05:56:08 78° 261° (W) 951 3.9 -11.2°
Drops below altitude 10° 06:02:06 10° 176° (S) 2,600 6.6 -10.2°
Sets 06:04:32 0° 175° (S) 3,526 7.3 -9.9°
